Back to catalog

STARLINK-11579

AliveCommunicationsVLEO
NORAD 63143·PAYLOAD·🇺🇸 United States

Launched Mar 3, 2025 from Cape Canaveral Space Force Station

Loading…

Next Passes (next 24 hours)

TLE

FreshSource: CelesTrak SupGP

Epoch: Sep 15, 2026, 03:15 UTC

1 63143C 25043M   26258.13590278 -.00028992  00000+0 -22526-3 0  2588
2 63143  43.0005 188.4521 0001437 266.8061 356.2054 15.70844578    19

Track STARLINK-11579 in real time with AllMySat

Download on the App Store